| time (UTC) | temp F | wind direction | speed knots | gust knots | rain 1hr in | rain 24hr in | rain mn in | humidity % | barometer mb |
| 20260904154703 | 82 | 227 | 1.7 | 9.6 | 0.00 | 0.00 | 0.00 | 80 | 1011.9 |
| 20260904153655 | 82 | 195 | 1.7 | 7.8 | 0.00 | 0.00 | 0.00 | 81 | 1012.0 |
| 20260904152710 | 82 | 174 | 2.6 | 7.8 | 0.00 | 0.00 | 0.00 | 82 | 1012.0 |
| 20260904151641 | 82 | 186 | 0.9 | 5.2 | 0.00 | 0.00 | 0.00 | 83 | 1011.9 |
| 20260904150641 | 82 | 194 | 0.9 | 5.2 | 0.00 | 0.00 | 0.00 | 83 | 1012.1 |
| 20260904145651 | 82 | 204 | 0.9 | 3.5 | 0.00 | 0.00 | 0.00 | 84 | 1012.1 |
| 20260904144619 | 81 | 213 | 0.0 | 2.6 | 0.00 | 0.00 | 0.00 | 86 | 1012.2 |
| 20260904143618 | 81 | 175 | 1.7 | 7.8 | 0.00 | 0.00 | 0.00 | 86 | 1012.1 |
| 20260904142643 | 80 | 153 | 1.7 | 7.8 | 0.00 | 0.00 | 0.00 | 87 | 1011.9 |
| 20260904135340 | 79 | 157 | 1.7 | 4.3 | 0.00 | 0.00 | 0.00 | 90 | 1011.8 |
| 20260904134331 | 79 | 169 | 0.9 | 3.5 | 0.00 | 0.00 | 0.00 | 90 | 1011.9 |
| 20260904133348 | 79 | 167 | 0.9 | 3.5 | 0.00 | 0.00 | 0.00 | 90 | 1011.7 |
| 20260904132345 | 79 | 186 | 0.9 | 4.3 | 0.00 | 0.00 | 0.00 | 90 | 1011.6 |
| 20260904131355 | 79 | 173 | 1.7 | 6.1 | 0.00 | 0.00 | 0.00 | 90 | 1011.5 |
| 20260904130356 | 79 | 178 | 0.9 | 7.0 | 0.00 | 0.00 | 0.00 | 90 | 1011.4 |
| 20260904125351 | 79 | 159 | 1.7 | 7.8 | 0.00 | 0.00 | 0.00 | 90 | 1011.4 |
| 20260904124345 | 79 | 181 | 3.5 | 7.8 | 0.00 | 0.00 | 0.00 | 90 | 1011.2 |
| 20260904123338 | 79 | 146 | 3.5 | 7.0 | 0.00 | 0.00 | 0.00 | 90 | 1011.1 |
| 20260904122342 | 78 | 159 | 1.7 | 7.0 | 0.00 | 0.00 | 0.00 | 91 | 1011.0 |
| 20260904121346 | 78 | 134 | 2.6 | 7.0 | 0.00 | 0.00 | 0.00 | 91 | 1010.9 |
| 20260904115252 | 78 | 155 | 1.7 | 6.1 | 0.00 | 0.00 | 0.00 | 91 | 1010.6 |
| 20260904114233 | 78 | 164 | 2.6 | 7.8 | 0.00 | 0.00 | 0.00 | 91 | 1010.4 |
| 20260904113213 | 78 | 137 | 2.6 | 7.8 | 0.00 | 0.00 | 0.00 | 90 | 1010.4 |
| 20260904111042 | 78 | 88 | 1.7 | 6.1 | 0.00 | 0.00 | 0.00 | 90 | 1010.3 |
| 20260904110023 | 78 | 119 | 0.9 | 4.3 | 0.00 | 0.00 | 0.00 | 90 | 1010.2 |
| 20260904104950 | 79 | 149 | 1.7 | 7.8 | 0.00 | 0.00 | 0.00 | 89 | 1010.1 |
| 20260904103929 | 79 | 184 | 2.6 | 7.8 | 0.00 | 0.00 | 0.00 | 89 | 1009.7 |
| 20260904101713 | 79 | 191 | 1.7 | 6.1 | 0.00 | 0.00 | 0.00 | 89 | 1009.8 |
| 20260904100722 | 79 | 172 | 1.7 | 7.0 | 0.00 | 0.00 | 0.00 | 89 | 1010.0 |
| 20260904095648 | 79 | 182 | 0.9 | 7.8 | 0.00 | 0.00 | 0.00 | 88 | 1009.9 |
| 20260904093514 | 79 | 184 | 1.7 | 6.1 | 0.00 | 0.00 | 0.00 | 88 | 1009.6 |
| 20260904092500 | 79 | 193 | 2.6 | 6.1 | 0.00 | 0.00 | 0.00 | 88 | 1009.5 |
| 20260904091516 | 79 | 167 | 1.7 | 6.1 | 0.00 | 0.00 | 0.00 | 88 | 1009.7 |
| 20260904090506 | 79 | 188 | 1.7 | 6.1 | 0.00 | 0.00 | 0.00 | 88 | 1009.8 |
| 20260904085521 | 79 | 184 | 2.6 | 7.0 | 0.00 | 0.00 | 0.00 | 88 | 1009.8 |
| 20260904084518 | 79 | 192 | 3.5 | 7.8 | 0.00 | 0.00 | 0.00 | 87 | 1009.7 |
| 20260904083451 | 79 | 193 | 3.5 | 8.7 | 0.00 | 0.00 | 0.00 | 87 | 1009.7 |
| 20260904073856 | 80 | 172 | 3.5 | 11.3 | 0.00 | 0.00 | 0.00 | 85 | 1009.9 |
| 20260904072918 | 80 | 150 | 3.5 | 11.3 | 0.00 | 0.00 | 0.00 | 85 | 1009.9 |
| 20260904071902 | 80 | 189 | 3.5 | 11.3 | 0.00 | 0.00 | 0.00 | 85 | 1010.0 |
| 20260904070830 | 80 | 208 | 3.5 | 9.6 | 0.00 | 0.00 | 0.00 | 85 | 1010.1 |
| 20260904064711 | 80 | 157 | 5.2 | 13.0 | 0.00 | 0.00 | 0.00 | 84 | 1010.1 |
| 20260904063656 | 80 | 174 | 3.5 | 13.0 | 0.00 | 0.00 | 0.00 | 83 | 1010.1 |
| 20260904062647 | 80 | 159 | 4.3 | 11.3 | 0.00 | 0.00 | 0.00 | 83 | 1010.1 |
| 20260904060537 | 80 | 144 | 4.3 | 9.6 | 0.00 | 0.00 | 0.00 | 82 | 1010.1 |
| 20260904055515 | 80 | 194 | 3.5 | 8.7 | 0.00 | 0.00 | 0.00 | 81 | 1010.2 |
| 20260904054537 | 80 | 178 | 3.5 | 8.7 | 0.00 | 0.00 | 0.00 | 81 | 1010.2 |
| 20260904053517 | 80 | 165 | 2.6 | 7.8 | 0.00 | 0.00 | 0.00 | 81 | 1010.1 |
| 20260904051341 | 80 | 162 | 4.3 | 11.3 | 0.00 | 0.00 | 0.00 | 80 | 1009.9 |
| 20260904050326 | 80 | 174 | 2.6 | 8.7 | 0.00 | 0.00 | 0.00 | 80 | 1009.8 |
| 20260904044211 | 80 | 170 | 2.6 | 9.6 | 0.00 | 0.00 | 0.00 | 79 | 1009.9 |
| 20260904043200 | 81 | 157 | 3.5 | 9.6 | 0.00 | 0.00 | 0.00 | 78 | 1009.9 |
| 20260904041235 | 81 | 204 | 4.3 | 13.9 | 0.00 | 0.00 | 0.00 | 77 | 1009.8 |
| 20260904040200 | 81 | 142 | 4.3 | 13.9 | 0.00 | 0.00 | 0.00 | 76 | 1009.8 |
| 20260904032821 | 82 | 144 | 3.5 | 11.3 | 0.00 | 0.00 | 0.00 | 75 | 1009.6 |
| 20260904031747 | 82 | 153 | 3.5 | 11.3 | 0.00 | 0.00 | 0.00 | 74 | 1009.5 |
| 20260904030733 | 83 | 138 | 3.5 | 9.6 | 0.00 | 0.00 | 0.00 | 72 | 1009.4 |
| 20260904025754 | 83 | 170 | 4.3 | 13.0 | 0.00 | 0.00 | 0.00 | 71 | 1009.3 |
| 20260904024744 | 83 | 188 | 5.2 | 13.0 | 0.00 | 0.00 | 0.00 | 71 | 1009.2 |
| 20260904023750 | 83 | 155 | 4.3 | 12.2 | 0.00 | 0.00 | 0.00 | 72 | 1009.1 |
| 20260904022731 | 83 | 165 | 3.5 | 8.7 | 0.00 | 0.00 | 0.00 | 72 | 1009.1 |
| 20260904020619 | 83 | 131 | 2.6 | 8.7 | 0.00 | 0.00 | 0.00 | 72 | 1008.8 |
| 20260904015602 | 84 | 177 | 3.5 | 9.6 | 0.00 | 0.00 | 0.00 | 71 | 1008.5 |
| 20260904013442 | 84 | 162 | 4.3 | 10.4 | 0.00 | 0.00 | 0.00 | 70 | 1008.4 |
| 20260904012438 | 85 | 98 | 5.2 | 10.4 | 0.00 | 0.00 | 0.00 | 69 | 1008.4 |
| 20260904010325 | 86 | 150 | 4.3 | 13.9 | 0.00 | 0.00 | 0.00 | 66 | 1008.2 |
| 20260904005308 | 86 | 154 | 5.2 | 13.9 | 0.00 | 0.00 | 0.00 | 65 | 1008.1 |
| 20260904004241 | 87 | 101 | 5.2 | 15.6 | 0.00 | 0.00 | 0.00 | 64 | 1008.2 |
| 20260904003255 | 87 | 153 | 5.2 | 15.6 | 0.00 | 0.00 | 0.00 | 63 | 1008.2 |
| 20260904002228 | 87 | 155 | 3.5 | 10.4 | 0.00 | 0.00 | 0.00 | 62 | 1008.1 |
| 20260904001228 | 88 | 161 | 4.3 | 12.2 | 0.00 | 0.00 | 0.00 | 62 | 1008.1 |
| 20260903235052 | 88 | 151 | 5.2 | 12.2 | 0.00 | 0.00 | 0.00 | 62 | 1007.9 |
| 20260903234050 | 89 | 137 | 6.1 | 12.2 | 0.00 | 0.00 | 0.00 | 60 | 1007.9 |
| 20260903233022 | 90 | 121 | 5.2 | 15.6 | 0.00 | 0.00 | 0.00 | 60 | 1007.8 |
| 20260903230819 | 92 | 111 | 7.8 | 16.5 | 0.00 | 0.00 | 0.00 | 56 | 1007.7 |
| 20260903224651 | 95 | 97 | 3.5 | 9.6 | 0.00 | 0.00 | 0.00 | 50 | 1007.3 |
| 20260903223639 | 96 | 121 | 5.2 | 11.3 | 0.00 | 0.00 | 0.00 | 50 | 1007.2 |
| 20260903222624 | 96 | 134 | 6.1 | 14.8 | 0.00 | 0.00 | 0.00 | 48 | 1007.3 |
| 20260903220522 | 98 | 166 | 4.3 | 12.2 | 0.00 | 0.00 | 0.00 | 44 | 1007.0 |
| 20260903215539 | 99 | 142 | 3.5 | 12.2 | 0.00 | 0.00 | 0.00 | 43 | 1006.9 |
| 20260903214540 | 99 | 172 | 3.5 | 8.7 | 0.00 | 0.00 | 0.00 | 42 | 1007.0 |
| 20260903213530 | 99 | 218 | 3.5 | 12.2 | 0.00 | 0.00 | 0.00 | 42 | 1007.1 |
| 20260903212513 | 99 | 139 | 3.5 | 12.2 | 0.00 | 0.00 | 0.00 | 42 | 1007.2 |
| 20260903211506 | 100 | 129 | 2.6 | 8.7 | 0.00 | 0.00 | 0.00 | 40 | 1007.2 |
| 20260903210518 | 101 | 165 | 1.7 | 9.6 | 0.00 | 0.00 | 0.00 | 39 | 1007.3 |
| 20260903204321 | 101 | 224 | 3.5 | 11.3 | 0.00 | 0.00 | 0.00 | 42 | 1007.7 |
| 20260903203342 | 101 | 65 | 3.5 | 9.6 | 0.00 | 0.00 | 0.00 | 41 | 1007.8 |
| 20260903202324 | 102 | 178 | 1.7 | 8.7 | 0.00 | 0.00 | 0.00 | 40 | 1007.9 |
| 20260903201307 | 102 | 196 | 2.6 | 8.7 | 0.00 | 0.00 | 0.00 | 40 | 1008.1 |
| 20260903200327 | 101 | 197 | 1.7 | 7.0 | 0.00 | 0.00 | 0.00 | 39 | 1008.1 |
| 20260903195330 | 101 | 261 | 2.6 | 8.7 | 0.00 | 0.00 | 0.00 | 41 | 1008.1 |
| 20260903194323 | 100 | 191 | 3.5 | 8.7 | 0.00 | 0.00 | 0.00 | 42 | 1008.2 |
| 20260903193249 | 101 | 151 | 1.7 | 7.8 | 0.00 | 0.00 | 0.00 | 42 | 1008.4 |
| 20260903192229 | 100 | 205 | 2.6 | 7.8 | 0.00 | 0.00 | 0.00 | 44 | 1008.7 |
| 20260903190138 | 99 | 167 | 1.7 | 10.4 | 0.00 | 0.00 | 0.00 | 44 | 1009.0 |
| 20260903185105 | 99 | 192 | 3.5 | 10.4 | 0.00 | 0.00 | 0.00 | 45 | 1009.2 |
| 20260903184040 | 99 | 215 | 3.5 | 8.7 | 0.00 | 0.00 | 0.00 | 46 | 1009.3 |
| 20260903183036 | 98 | 205 | 3.5 | 9.6 | 0.00 | 0.00 | 0.00 | 47 | 1009.4 |
| 20260903182039 | 98 | 165 | 3.5 | 9.6 | 0.00 | 0.00 | 0.00 | 47 | 1009.6 |
| 20260903181023 | 98 | 197 | 1.7 | 8.7 | 0.00 | 0.00 | 0.00 | 47 | 1009.7 |
| 20260903180042 | 97 | 208 | 2.6 | 13.0 | 0.00 | 0.00 | 0.00 | 46 | 1009.8 |
| 20260903175047 | 97 | 166 | 3.5 | 13.0 | 0.00 | 0.00 | 0.00 | 49 | 1009.9 |
| 20260903174107 | 96 | 163 | 4.3 | 13.0 | 0.00 | 0.00 | 0.00 | 49 | 1009.8 |
| 20260903173123 | 96 | 155 | 1.7 | 8.7 | 0.00 | 0.00 | 0.00 | 51 | 1010.0 |
| 20260903171006 | 95 | 173 | 3.5 | 10.4 | 0.00 | 0.00 | 0.00 | 52 | 1010.3 |
| 20260903170022 | 95 | 200 | 2.6 | 6.1 | 0.00 | 0.00 | 0.00 | 53 | 1010.5 |
| 20260903165034 | 94 | 246 | 2.6 | 9.6 | 0.00 | 0.00 | 0.00 | 54 | 1010.5 |
| 20260903164040 | 93 | 196 | 3.5 | 13.0 | 0.00 | 0.00 | 0.00 | 56 | 1010.6 |
| 20260903161909 | 92 | 219 | 3.5 | 10.4 | 0.00 | 0.00 | 0.00 | 57 | 1010.6 |
| 20260903160932 | 91 | 202 | 1.7 | 8.7 | 0.00 | 0.00 | 0.00 | 59 | 1010.6 |
| 20260903155931 | 91 | 231 | 3.5 | 11.3 | 0.00 | 0.00 | 0.00 | 59 | 1010.6 |